Location: Brunembert
(50.7122°N, 1.8935°E)
Time: 09:18:53
(UTC+00:00)

FALCON 9 DEB - Pass Details

Date: 22 April 2021
Orbit: 364 x 382 km, 53.0° (Epoch: 05 May)

Event Time Altitude Azimuth Distance (km) Brightness Sun altitude
Rises 20:53:09 0° 239° (WSW) 2,198 6.9 -15.9°
Reaches altitude 10° 20:55:11 10° 237° (WSW) 1,353 5.8 -16.1°
Maximum altitude 20:58:10 63° 155° (SSE) 413 2.7 -16.5°
Enters shadow 20:58:41 51° 105° (ESE) 469 2.9 -16.5°
